Terminal Aerodrome Forecast
Issued by NWS Greer, SC

Home | Current Version | Previous Version | Text Only | Print | Product List | Glossary On
Versions: 1 2 3 4 5 6 7 8 9 10 11 12 13 14 15 16 17 18 19 20 21 22 23 24 25 26 27 28 29 30 31 32 33 34 35 36 37 38 39 40 41 42 43 44 45 46 47 48 49 50
000
FTUS42 KGSP 170100 AAA
TAFCLT
TAF AMD
KCLT 170158Z 1702/1724 04003KT 6SM -TSRA BR BKN030CB
     FM170300 03004KT 4SM BR BKN015
     FM171300 03006KT P6SM BKN035
     FM172100 05006KT P6SM SCT035=

USA.gov is the U.S. government's official web portal to all federal, state and local government web resources and services.